TimeEDT,TemperatureF,Dew PointF,Humidity,Sea Level PressureIn,VisibilityMPH,Wind Direction,Wind SpeedMPH,Gust SpeedMPH,PrecipitationIn,Events,Conditions,WindDirDegrees,DateUTC
12:56 AM,21.0,14.0,74,29.86,10.0,West,4.6,-,N/A,,Overcast,260,2013-03-21 04:56:00
1:53 AM,19.4,12.2,74,29.77,2.0,WNW,5.8,-,0.00,Snow,Light Snow,290,2013-03-21 05:53:00
1:56 AM,19.9,14.0,78,29.84,1.8,WNW,4.6,-,0.00,Snow,Light Snow,290,2013-03-21 05:56:00
2:18 AM,19.4,15.8,86,29.77,0.8,WSW,3.5,-,0.00,Snow,Light Snow,250,2013-03-21 06:18:00
2:29 AM,19.4,15.8,86,29.77,1.2,SW,3.5,-,0.00,Snow,Light Snow,230,2013-03-21 06:29:00
2:56 AM,19.0,16.0,88,29.83,0.8,West,3.5,-,0.00,Snow,Light Snow,260,2013-03-21 06:56:00
3:11 AM,19.4,15.8,86,29.75,0.2,WSW,5.8,-,0.01,Fog-Snow,Snow,250,2013-03-21 07:11:00
3:16 AM,19.4,15.8,86,29.75,0.5,WSW,6.9,-,0.01,Fog-Snow,Light Snow,250,2013-03-21 07:16:00
3:41 AM,19.4,15.8,86,29.74,1.0,West,5.8,-,0.02,Snow,Light Snow,260,2013-03-21 07:41:00
3:56 AM,19.0,16.0,88,29.81,2.0,West,5.8,-,0.02,Snow,Light Snow,270,2013-03-21 07:56:00
4:30 AM,17.6,15.8,93,29.73,5.0,West,5.8,-,0.00,,Overcast,270,2013-03-21 08:30:00
4:48 AM,17.6,15.8,93,29.73,2.5,West,8.1,-,0.00,Snow,Light Snow,270,2013-03-21 08:48:00
4:56 AM,18.0,14.0,84,29.80,2.0,WNW,10.4,-,0.00,Snow,Light Snow,290,2013-03-21 08:56:00
5:04 AM,17.6,14.0,86,29.73,6.0,West,9.2,-,0.00,,Overcast,270,2013-03-21 09:04:00
5:20 AM,17.6,14.0,86,29.73,7.0,West,9.2,-,0.00,,Overcast,270,2013-03-21 09:20:00
5:56 AM,16.0,12.0,84,29.80,10.0,West,10.4,-,0.00,,Mostly Cloudy,270,2013-03-21 09:56:00
6:14 AM,15.8,12.2,86,29.73,10.0,West,5.8,-,N/A,,Mostly Cloudy,270,2013-03-21 10:14:00
6:24 AM,15.8,10.4,79,29.73,10.0,West,9.2,-,N/A,,Mostly Cloudy,270,2013-03-21 10:24:00
6:49 AM,15.8,12.2,86,29.73,10.0,WNW,9.2,-,N/A,,Mostly Cloudy,290,2013-03-21 10:49:00
6:56 AM,16.0,12.0,84,29.81,10.0,West,6.9,-,N/A,,Mostly Cloudy,280,2013-03-21 10:56:00
7:15 AM,15.8,12.2,86,29.73,10.0,West,8.1,-,N/A,,Overcast,270,2013-03-21 11:15:00
7:56 AM,16.0,10.9,81,29.81,5.0,West,9.2,-,N/A,,Haze,280,2013-03-21 11:56:00
8:05 AM,15.8,10.4,79,29.74,5.0,West,8.1,-,N/A,,Haze,280,2013-03-21 12:05:00
8:12 AM,15.8,10.4,79,29.73,7.0,West,9.2,-,N/A,,Overcast,260,2013-03-21 12:12:00
8:56 AM,15.1,10.0,80,29.81,10.0,West,9.2,-,N/A,,Overcast,260,2013-03-21 12:56:00
9:27 AM,15.8,8.6,73,29.74,9.0,West,11.5,-,N/A,,Overcast,260,2013-03-21 13:27:00
9:47 AM,15.8,8.6,73,29.74,10.0,WNW,8.1,-,N/A,,Overcast,290,2013-03-21 13:47:00
9:56 AM,16.0,9.0,74,29.81,10.0,West,11.5,17.3,N/A,,Overcast,260,2013-03-21 13:56:00
10:14 AM,15.8,8.6,73,29.73,10.0,West,12.7,-,N/A,,Overcast,270,2013-03-21 14:14:00
10:46 AM,17.6,8.6,68,29.73,10.0,West,11.5,-,N/A,,Overcast,260,2013-03-21 14:46:00
10:56 AM,17.1,8.1,68,29.82,10.0,WSW,13.8,19.6,N/A,,Overcast,250,2013-03-21 14:56:00
11:44 AM,17.6,6.8,63,29.74,8.0,WNW,12.7,-,N/A,,Overcast,290,2013-03-21 15:44:00
11:52 AM,17.6,8.6,68,29.74,1.8,West,11.5,20.7,0.00,Snow,Light Snow,280,2013-03-21 15:52:00
11:56 AM,17.1,9.0,71,29.83,1.5,West,11.5,-,0.00,Snow,Light Snow,280,2013-03-21 15:56:00
12:01 PM,17.6,10.4,73,29.74,3.0,West,10.4,-,0.00,Snow,Light Snow,280,2013-03-21 16:01:00
12:16 PM,17.6,10.4,73,29.74,1.5,West,13.8,-,0.00,Snow,Light Snow,280,2013-03-21 16:16:00
12:23 PM,17.6,10.4,73,29.74,0.5,West,12.7,-,0.00,Snow,Snow,280,2013-03-21 16:23:00
12:34 PM,17.6,10.4,73,29.74,2.0,West,12.7,-,0.00,Snow,Light Snow,260,2013-03-21 16:34:00
12:37 PM,17.6,10.4,73,29.74,4.0,West,13.8,19.6,0.00,Snow,Light Snow,260,2013-03-21 16:37:00
12:56 PM,19.0,10.9,71,29.81,9.0,WSW,19.6,-,0.00,,Overcast,250,2013-03-21 16:56:00
1:04 PM,17.6,10.4,73,29.73,1.8,West,15.0,23.0,0.00,Snow,Light Snow,260,2013-03-21 17:04:00
1:18 PM,17.6,10.4,73,29.73,0.8,West,12.7,20.7,0.00,Snow,Light Snow,260,2013-03-21 17:18:00
1:26 PM,17.6,12.2,79,29.73,1.5,WSW,11.5,-,0.00,Snow,Light Snow,250,2013-03-21 17:26:00
1:31 PM,17.6,10.4,73,29.73,3.0,WSW,13.8,20.7,0.00,Snow,Light Snow,250,2013-03-21 17:31:00
1:33 PM,19.4,10.4,68,29.73,2.5,West,17.3,23.0,0.00,Snow,Light Snow,260,2013-03-21 17:33:00
1:43 PM,19.4,12.2,74,29.73,1.8,WNW,12.7,25.3,0.00,Snow,Light Snow,290,2013-03-21 17:43:00
1:49 PM,19.4,10.4,68,29.73,3.0,West,12.7,-,0.00,Snow,Light Snow,260,2013-03-21 17:49:00
1:56 PM,19.9,7.0,57,29.81,9.0,West,11.5,-,0.00,,Overcast,260,2013-03-21 17:56:00
2:05 PM,19.4,10.4,68,29.73,1.8,West,15.0,24.2,0.00,Snow,Light Snow,280,2013-03-21 18:05:00
2:23 PM,19.4,8.6,63,29.73,2.5,West,11.5,24.2,0.00,Snow,Light Snow,270,2013-03-21 18:23:00
2:28 PM,19.4,10.4,68,29.73,4.0,West,15.0,19.6,0.00,Snow,Light Snow,270,2013-03-21 18:28:00
2:31 PM,19.4,10.4,68,29.73,1.8,West,16.1,19.6,0.00,Snow,Light Snow,260,2013-03-21 18:31:00
2:36 PM,19.4,10.4,68,29.73,0.8,West,15.0,-,0.00,Snow,Light Snow,260,2013-03-21 18:36:00
2:46 PM,19.4,10.4,68,29.72,1.8,West,11.5,-,0.00,Snow,Light Snow,280,2013-03-21 18:46:00
2:49 PM,19.4,8.6,63,29.72,4.0,West,12.7,18.4,0.00,Snow,Light Snow,270,2013-03-21 18:49:00
2:56 PM,19.9,8.1,60,29.80,9.0,West,12.7,20.7,0.00,,Overcast,260,2013-03-21 18:56:00
3:52 PM,21.2,10.4,63,29.71,3.0,West,12.7,19.6,0.00,Snow,Light Snow,280,2013-03-21 19:52:00
3:56 PM,21.0,12.0,68,29.79,2.5,WSW,15.0,19.6,0.00,Snow,Light Snow,250,2013-03-21 19:56:00
4:06 PM,21.2,12.2,68,29.72,4.0,West,13.8,20.7,0.00,,Haze,280,2013-03-21 20:06:00
4:26 PM,21.2,12.2,68,29.72,1.8,West,18.4,-,0.00,Snow,Light Snow,270,2013-03-21 20:26:00
4:37 PM,21.2,12.2,68,29.72,3.0,West,15.0,-,0.00,Snow,Light Snow,270,2013-03-21 20:37:00
4:48 PM,21.2,12.2,68,29.72,6.0,West,12.7,-,0.00,,Haze,260,2013-03-21 20:48:00
4:56 PM,21.9,12.9,68,29.80,6.0,West,17.3,21.9,0.00,,Haze,260,2013-03-21 20:56:00
5:03 PM,21.2,12.2,68,29.72,2.5,West,13.8,20.7,0.00,Snow,Light Snow,270,2013-03-21 21:03:00
5:13 PM,21.2,14.0,74,29.73,1.2,West,11.5,-,0.00,Snow,Light Snow,260,2013-03-21 21:13:00
5:27 PM,21.2,15.8,80,29.73,0.8,West,16.1,23.0,0.00,Snow,Light Snow,270,2013-03-21 21:27:00
5:35 PM,21.2,14.0,74,29.73,2.0,West,13.8,23.0,0.00,Snow,Light Snow,270,2013-03-21 21:35:00
5:41 PM,21.2,14.0,74,29.73,3.0,West,16.1,-,0.00,Snow,Light Snow,270,2013-03-21 21:41:00
5:45 PM,21.2,14.0,74,29.73,2.5,West,11.5,21.9,0.00,Snow,Light Snow,270,2013-03-21 21:45:00
5:49 PM,21.2,14.0,74,29.73,3.0,West,12.7,21.9,0.00,Snow,Light Snow,260,2013-03-21 21:49:00
5:56 PM,21.9,14.0,72,29.81,5.0,West,17.3,21.9,0.00,Snow,Light Snow,270,2013-03-21 21:56:00
6:56 PM,21.9,15.1,75,29.81,6.0,West,13.8,-,0.00,,Haze,270,2013-03-21 22:56:00
7:28 PM,21.2,15.8,80,29.74,2.5,West,15.0,-,0.00,Snow,Light Snow,260,2013-03-21 23:28:00
7:36 PM,21.2,15.8,80,29.74,1.2,West,15.0,-,0.00,Snow,Light Snow,260,2013-03-21 23:36:00
7:47 PM,21.2,15.8,80,29.74,3.0,West,12.7,-,0.00,Snow,Light Snow,260,2013-03-21 23:47:00
7:56 PM,21.0,16.0,81,29.83,3.0,West,16.1,20.7,0.00,Snow,Light Snow,260,2013-03-21 23:56:00
8:18 PM,21.2,15.8,80,29.75,2.0,West,13.8,-,0.00,Snow,Light Snow,260,2013-03-22 00:18:00
8:33 PM,21.2,17.6,86,29.74,3.0,West,16.1,-,0.00,Snow,Light Snow,260,2013-03-22 00:33:00
8:44 PM,21.2,17.6,86,29.74,1.8,WSW,15.0,-,0.00,Snow,Light Snow,250,2013-03-22 00:44:00
8:56 PM,21.0,17.1,85,29.83,1.2,WSW,15.0,-,0.00,Snow,Light Snow,250,2013-03-22 00:56:00
9:14 PM,21.2,17.6,86,29.74,3.0,WSW,12.7,-,0.00,Snow,Light Snow,250,2013-03-22 01:14:00
9:29 PM,21.2,17.6,86,29.75,3.0,West,13.8,-,0.00,Snow,Light Snow,260,2013-03-22 01:29:00
9:32 PM,21.2,17.6,86,29.75,2.5,West,13.8,-,0.00,Snow,Light Snow,260,2013-03-22 01:32:00
9:41 PM,21.2,17.6,86,29.74,3.0,WSW,16.1,-,0.00,,Overcast,250,2013-03-22 01:41:00
9:45 PM,21.2,17.6,86,29.74,2.5,WSW,12.7,-,0.00,Snow,Light Snow,250,2013-03-22 01:45:00
9:56 PM,21.0,18.0,88,29.83,1.8,WSW,15.0,-,0.00,Snow,Light Snow,250,2013-03-22 01:56:00
10:02 PM,21.2,17.6,86,29.75,2.5,WSW,13.8,-,0.00,Snow,Light Snow,250,2013-03-22 02:02:00
10:10 PM,21.2,17.6,86,29.75,3.0,WSW,17.3,-,0.00,,Overcast,250,2013-03-22 02:10:00
10:20 PM,21.2,17.6,86,29.75,2.0,WSW,17.3,-,0.00,Snow,Light Snow,250,2013-03-22 02:20:00
10:26 PM,21.2,17.6,86,29.75,1.2,WSW,15.0,-,0.00,Snow,Light Snow,250,2013-03-22 02:26:00
10:42 PM,21.2,19.4,93,29.75,0.8,West,12.7,-,0.00,Snow,Light Snow,260,2013-03-22 02:42:00
10:56 PM,21.0,19.0,92,29.83,0.5,West,10.4,-,0.00,Fog-Snow,Snow,260,2013-03-22 02:56:00
11:12 PM,21.2,19.4,93,29.75,1.0,West,9.2,-,0.00,Snow,Light Snow,260,2013-03-22 03:12:00
11:28 PM,21.2,19.4,93,29.75,2.0,WSW,10.4,-,0.00,Snow,Light Snow,250,2013-03-22 03:28:00
11:34 PM,21.2,19.4,93,29.75,2.0,WSW,12.7,-,0.00,Snow,Light Snow,250,2013-03-22 03:34:00
11:52 PM,21.2,19.4,93,29.75,3.0,WSW,13.8,-,0.00,Snow,Light Snow,250,2013-03-22 03:52:00
11:56 PM,21.9,19.0,89,29.83,2.5,WSW,13.8,-,0.00,Snow,Light Snow,250,2013-03-22 03:56:00
11:58 PM,21.2,19.4,93,29.75,3.0,West,15.0,-,0.00,Snow,Light Snow,260,2013-03-22 03:58:00